Showing default

AETHER-10, 67381

Orbit data source: Space-Track

AETHER-10, 67381 is a payload satellite owned by Kepler Comms (CA) in SSO that was launched on Sun, 11 Jan 2026 UTC via an FALCON 9 launch vehicle from the Air Force Western Test Range (AFWTR). Payload-class satellites include a variety of spacecraft equipped with specific instruments for various scientific and technological missions. These include communications satellites like Starlink; space stations such as the ISS; scientific satellites like the Hubble; Earth observation satellites from companies like Planet Labs, Umbra, and HawkEye 360; GPS; miniature CubeSats for education and research; and military/defense satellites.

Loading next visibility...
Identifier
67381, 2026-004U
Orbit
SSO
Country
Flag of CACA
Related business
Manufacturer
Kepler Comms
Mission
Operational Commercial Communications
Bus & Motor
KEPLER GEN2B, Unknown motor
Mass
300 kg wet, 300 kg dry
Launch date (UTC)
2026-01-11 (8 months ago)
Launch vehicle
FALCON 9
Launch site
Air Force Western Test Range (AFWTR)
Object type
Payload
Rocket body
Debris
Shape & HBR
Box + 2 Pan, 7.6 m
Radar Cross Section
4.448 m², Large (>1 m²)

Expand to show TLE details & history
Last TLE update: 19 hours ago

TLE from 19 hours ago
0 AETHER-10
1 67381U 26004U   26263.97834322  .00000382  00000-0  49848-4 0  9994
2 67381  97.8115 260.9094 0001054 163.6454 196.4796 14.85920614 37515
Epoch: 2026-09-20T23:28Z
TLE epoch observation values (Epoch: 2026-09-20T23:28:48.854Z)
Latitude
0.00003°
Longitude
-91.15893°
Altitude
614.436 km
Speed
7.551 km/s
True Right ascension
17h 23m 38s
True Declination
0° 00' 00"
Sunlit
Object was in daylight at epoch
Visualization orbit readout
Latitude
Unknown
Longitude
Unknown
Altitude
Unknown
Speed
Unknown
Apparent Right ascension
Unknown
Apparent Declination
Unknown
Sunlit
N/A
Visualization observer readout
Local Sidereal Time
11:33:38
Azimuth
Unknown
Elevation
Unknown
Doppler factor
Unknown
Orbital elements
Apogee altitude
608.463 km
Perigee altitude
606.99 km
Semi-major axis
6,985.864 km
Eccentricity
0.00011
Inclination
97.8115°
RAAN
260.9094°
Arg. of periapsis
163.6454°
True anomaly
196.47617°
Mean anomaly
196.4796°
Eccentric anomaly
196.47789°
Mean motion
3.71717 °/min
Orbital period
96.85 mins
BSTAR
0.000049848
Loading maneuver chart data...
Computing Atmospheric mass density...
Loading historical data...
Loading historical data...
Loading historical data...
Loading historical data...
Loading historical data...
Loading historical data...
Loading historical data...

Documentation

Showing up to 5 results
|